{"data":{"norad_id":66753,"epoch":"2026-05-25T03:21:29.532960Z","epoch_age_seconds":66508,"freshness":"FRESH","line1":"1 66753U 25276CR  26145.13992515  .00003497  00000+0  21762-3 0  9995","line2":"2 66753  97.4177 218.5091 0005097 110.8154 249.3622 15.10231534 26888","mean_motion":15.10231534,"eccentricity":0.0005097,"inclination_deg":97.4177,"raan_deg":218.5091,"arg_perigee_deg":110.8154,"mean_anomaly_deg":249.3622,"bstar":0.00021762,"rev_number":2688,"period_min":95.349618093725,"perigee_km":531.96941508155,"apogee_km":539.01716980166,"semimajor_km":6913.6302924416,"source":"CELESTRAK","updated_at":"2026-05-25T13:38:06.452387Z"}}